Location: Baia Mare
(47.6567°N, 23.5850°E)
Time: 23:34:28
(UTC+03:00)

ISS - Pass Details

Date: 02 November 2018
Orbit: 403 x 408 km, 51.6° (Epoch: 17 October)

Event Time Altitude Azimuth Distance (km) Brightness Sun altitude
Exits shadow 05:53:14 26° 281° (WNW) 828 -2.9 -13.5°
Maximum altitude 05:54:45 51° 346° (NNW) 517 -3.5 -13.2°
Drops below altitude 10° 05:57:58 10° 64° (ENE) 1,466 -0.1 -12.7°
Sets 06:00:06 0° 69° (ENE) 2,328 1.2 -12.3°
